(36587) = 1958 VM = 2000 QM128

Discovered at Socorro on 2000-08-24 by LINEAR.

Orbit

Orbit type: Main Belt

Note: WebGL enabled browser required.

epoch2024-03-31.0
epoch JD2460400.5
perihelion date2022-01-12.80488
perihelion JD2459592.30488
argument of perihelion (°)31.86172
ascending node (°)57.46500
inclination (°)14.53914
eccentricity0.1198007
perihelion distance (AU)2.6514735
Tisserand w.r.t. Jupiter3.2
ΔV w.r.t. Earth (km/sec)11.1
semimajor axis (AU)3.0123559
mean anomaly (°)152.35638
mean daily motion (°/day)0.18851440
aphelion distance (AU)3.373
period (years)5.23
P-vector [x]0.02600212
P-vector [y]0.85636514
P-vector [z]0.51571566
Q-vector [x]-0.97700096
Q-vector [y]-0.08745186
Q-vector [z]0.19447698
absolute magnitude13.32
phase slope0.15
uncertainty0
referenceMPEC 2024-E144
observations used2409
oppositions24
arc length (days)23861
first opposition used1958
last opposition used2024
residual rms (arc-secs)0.59
perturbers coarse indicatorM-v
perturbers precise indicator003Ek
first observation date used1958-11-11.0
last observation date used2024-03-10.0
computer nameMPCLINUX
JD of orbit computation2456847.747062
perihelion JD uncertainty (days)1.1085E-04
argument of perihelion uncertainty (°)2.4609E-05
ascending node uncertainty (°)1.4487E-05
inclination uncertainty (°)4.5675E-06
eccentricity uncertainty 3.5846E-08
perihelion distance uncertainty (AU)1.0696E-07
Minimum Orbit Intersection Distances (in AU)
for orbit epoch: 2460400.5, reference: E2024-EE4
Mercury2.34302
Venus1.93806
Earth1.67852
Mars1.10361
Jupiter1.96755
Saturn6.41222
Uranus15.501
Neptune26.9677

Observations

2452 total observations over interval: 1958 11 11.26946 – 2024 03 10.104171
These data are available for download (format description).

Date (UT) J2000 RA J2000 Dec Magn Location Ref
1958 11 11.26946 03 20 17.97 +14 55 28.8 16.7   760 – Goethe Link Observatory, Brooklyn MPC 10909
1958 11 11.27 03 20.2 +14 55 16.7   760 – Goethe Link Observatory, Brooklyn MPC 1883
1958 11 11.31806 03 20 14.98 +14 55 32.1   760 – Goethe Link Observatory, Brooklyn MPC 15979
1987 06 02.50626 14 53 26.05 -14 40 05.6   260 – Siding Spring Observatory-DSS MPS 32339
1987 06 02.56876 14 53 23.31 -14 40 07.4   260 – Siding Spring Observatory-DSS MPS 32339
1989 09 29.58853 01 20 44.45 -08 51 56.6   260 – Siding Spring Observatory-DSS MPS 32339
1989 09 29.63714 01 20 41.90 -08 52 04.5   260 – Siding Spring Observatory-DSS MPS 32339
1989 10 30.49211 00 54 24.02 -09 11 33.6   260 – Siding Spring Observatory-DSS MPS 32339
1989 10 30.53725 00 54 22.03 -09 11 27.6   260 – Siding Spring Observatory-DSS MPS 32339
1999 09 11.26709 22 51 29.72 -29 57 25.4 18.2   704 – Lincoln Laboratory ETS, New Mexico MPS 32339
1999 09 11.28197 22 51 28.88 -29 57 27.8 18.7   704 – Lincoln Laboratory ETS, New Mexico MPS 32339
1999 09 11.29710 22 51 28.18 -29 57 29.0 19.0   704 – Lincoln Laboratory ETS, New Mexico MPS 32339
1999 09 11.31161 22 51 27.20 -29 57 30.8 18.9   704 – Lincoln Laboratory ETS, New Mexico MPS 32339
1999 09 11.32599 22 51 26.48 -29 57 32.8 18.4   704 – Lincoln Laboratory ETS, New Mexico MPS 32339
2000 08 24.42989 04 38 20.31 +19 45 19.7 16.5   704 – Lincoln Laboratory ETS, New Mexico MPS 18273
2000 08 24.44253 04 38 21.12 +19 45 23.4 16.5   704 – Lincoln Laboratory ETS, New Mexico MPS 18273
2000 08 24.45506 04 38 21.98 +19 45 28.6 16.4   704 – Lincoln Laboratory ETS, New Mexico MPS 18273
2000 09 01.41159 04 46 50.29 +20 25 11.4 18.7   704 – Lincoln Laboratory ETS, New Mexico MPS 18273
2000 09 01.42259 04 46 51.02 +20 25 14.7 18.4   704 – Lincoln Laboratory ETS, New Mexico MPS 18273
2000 09 01.43360 04 46 51.63 +20 25 18.3 18.4   704 – Lincoln Laboratory ETS, New Mexico MPS 18273
2000 09 01.44900 04 46 52.58 +20 25 22.7 18.2   704 – Lincoln Laboratory ETS, New Mexico MPS 18273
2000 09 01.46002 04 46 53.26 +20 25 26.0 18.7   704 – Lincoln Laboratory ETS, New Mexico MPS 18273
2000 09 04.40734 04 49 48.20 +20 39 50.9 18.6   704 – Lincoln Laboratory ETS, New Mexico MPS 18273
2000 09 04.41835 04 49 48.80 +20 39 54.5 18.6   704 – Lincoln Laboratory ETS, New Mexico MPS 18273
2000 09 04.43289 04 49 49.63 +20 39 58.0 18.5   704 – Lincoln Laboratory ETS, New Mexico MPS 18273
2000 09 04.44390 04 49 50.30 +20 40 01.8 18.6   704 – Lincoln Laboratory ETS, New Mexico MPS 18273
2000 09 04.45490 04 49 50.91 +20 40 04.5 18.5   704 – Lincoln Laboratory ETS, New Mexico MPS 18273
2000 09 05.40714 04 50 45.82 +20 44 43.3 19.1   704 – Lincoln Laboratory ETS, New Mexico MPS 18273
2000 09 05.40768 04 50 45.80 +20 44 43.2 18.5   704 – Lincoln Laboratory ETS, New Mexico MPS 18273
2000 09 05.42018 04 50 46.42 +20 44 46.5 19.1   704 – Lincoln Laboratory ETS, New Mexico MPS 18273
2000 09 05.42071 04 50 46.50 +20 44 45.9 18.9   704 – Lincoln Laboratory ETS, New Mexico MPS 18273
2000 09 05.44750 04 50 47.98 +20 44 55.1 19.2   704 – Lincoln Laboratory ETS, New Mexico MPS 18273
2000 09 05.44803 04 50 48.09 +20 44 56.8 19.2   704 – Lincoln Laboratory ETS, New Mexico MPS 18273
2000 09 07.41866 04 52 38.79 +20 54 28.8 18.6   704 – Lincoln Laboratory ETS, New Mexico MPS 18273
2000 09 07.42972 04 52 39.32 +20 54 31.7 18.6   704 – Lincoln Laboratory ETS, New Mexico MPS 18273
2000 09 07.44078 04 52 39.97 +20 54 34.8 18.9   704 – Lincoln Laboratory ETS, New Mexico MPS 18273
2000 09 07.45184 04 52 40.53 +20 54 37.4 18.4   704 – Lincoln Laboratory ETS, New Mexico MPS 18273
2000 09 07.46289 04 52 41.26 +20 54 42.0 19.7   704 – Lincoln Laboratory ETS, New Mexico MPS 18273
2000 09 30.40555 05 08 54.99 +22 45 54.3 19.2   704 – Lincoln Laboratory ETS, New Mexico MPS 19382
2000 09 30.42116 05 08 55.40 +22 45 59.2 19.5   704 – Lincoln Laboratory ETS, New Mexico MPS 19382
2000 09 30.43598 05 08 55.79 +22 46 04.4 19.8   704 – Lincoln Laboratory ETS, New Mexico MPS 19382
2000 09 30.45082 05 08 56.23 +22 46 08.6 19.6   704 – Lincoln Laboratory ETS, New Mexico MPS 19382
2000 09 30.46666 05 08 56.62 +22 46 13.2 19.8   704 – Lincoln Laboratory ETS, New Mexico MPS 19382
2000 10 24.46281 05 12 18.94 +24 51 12.6 17.2   704 – Lincoln Laboratory ETS, New Mexico MPS 21016
2000 10 24.47631 05 12 18.73 +24 51 17.3 17.4   704 – Lincoln Laboratory ETS, New Mexico MPS 21016
2000 10 24.48982 05 12 18.56 +24 51 21.7 17.7   704 – Lincoln Laboratory ETS, New Mexico MPS 21016
2000 10 24.50337 05 12 18.36 +24 51 26.6 17.7   704 – Lincoln Laboratory ETS, New Mexico MPS 21016
2000 11 03.28647 05 08 48.52 +25 45 11.1 17.5   704 – Lincoln Laboratory ETS, New Mexico MPS 21016
2000 11 03.30010 05 08 48.07 +25 45 15.9 17.5   704 – Lincoln Laboratory ETS, New Mexico MPS 21016
2000 11 03.31372 05 08 47.66 +25 45 20.6 18.8   704 – Lincoln Laboratory ETS, New Mexico MPS 21016
2000 11 03.32733 05 08 47.23 +25 45 24.7 18.1   704 – Lincoln Laboratory ETS, New Mexico MPS 21016
2000 11 03.34093 05 08 46.78 +25 45 30.1 18.4   704 – Lincoln Laboratory ETS, New Mexico MPS 21016
2000 11 05.38320 05 07 40.84 +25 56 42.5 17.8   704 – Lincoln Laboratory ETS, New Mexico MPS 21016
2000 11 05.39733 05 07 40.31 +25 56 47.3 18.0   704 – Lincoln Laboratory ETS, New Mexico MPS 21016
2000 11 05.41206 05 07 39.82 +25 56 52.2 18.1   704 – Lincoln Laboratory ETS, New Mexico MPS 21016
2000 11 05.42578 05 07 39.34 +25 56 55.9 19.4   704 – Lincoln Laboratory ETS, New Mexico MPS 21016
2000 11 05.43942 05 07 38.79 +25 57 01.6 18.3   704 – Lincoln Laboratory ETS, New Mexico MPS 21016
2000 11 20.36366 04 56 14.21 +27 15 36.1 17.5   704 – Lincoln Laboratory ETS, New Mexico MPS 22388
2000 11 20.37864 04 56 13.36 +27 15 40.3 17.7   704 – Lincoln Laboratory ETS, New Mexico MPS 22388
2000 11 20.39468 04 56 12.43 +27 15 45.3 17.5   704 – Lincoln Laboratory ETS, New Mexico MPS 22388
2000 11 20.40959 04 56 11.57 +27 15 49.2 17.5   704 – Lincoln Laboratory ETS, New Mexico MPS 22388
2000 11 20.42445 04 56 10.70 +27 15 53.8 17.5   704 – Lincoln Laboratory ETS, New Mexico MPS 22388
2000 11 30.30244 04 46 11.38 +28 00 50.4 17.4   704 – Lincoln Laboratory ETS, New Mexico MPS 22388
2000 11 30.31835 04 46 10.31 +28 00 55.2 17.2   704 – Lincoln Laboratory ETS, New Mexico MPS 22388
2000 11 30.33352 04 46 09.33 +28 00 58.9 17.1   704 – Lincoln Laboratory ETS, New Mexico MPS 22388
2000 11 30.34873 04 46 08.32 +28 01 02.7 17.6   704 – Lincoln Laboratory ETS, New Mexico MPS 22388
2000 11 30.36391 04 46 07.31 +28 01 06.1 18.1   704 – Lincoln Laboratory ETS, New Mexico MPS 22388
2000 12 20.21323 04 25 30.94 +29 05 13.8 17.7   704 – Lincoln Laboratory ETS, New Mexico MPS 23784
2000 12 20.22851 04 25 30.09 +29 05 16.0 17.7   704 – Lincoln Laboratory ETS, New Mexico MPS 23784
2000 12 20.24444 04 25 29.15 +29 05 18.2 17.5   704 – Lincoln Laboratory ETS, New Mexico MPS 23784
2000 12 20.25970 04 25 28.28 +29 05 20.0 17.4   704 – Lincoln Laboratory ETS, New Mexico MPS 23784
2000 12 20.27494 04 25 27.42 +29 05 22.5 17.4   704 – Lincoln Laboratory ETS, New Mexico MPS 23784
2001 01 04.22295 04 14 20.26 +29 34 03.9 17.7   704 – Lincoln Laboratory ETS, New Mexico MPS 23784
2001 01 04.23809 04 14 19.71 +29 34 04.7 17.9   704 – Lincoln Laboratory ETS, New Mexico MPS 23784
2001 01 04.25325 04 14 19.20 +29 34 06.3 17.6   704 – Lincoln Laboratory ETS, New Mexico MPS 23784
2001 01 04.26908 04 14 18.68 +29 34 07.2 17.7   704 – Lincoln Laboratory ETS, New Mexico MPS 23784
2001 01 04.28424 04 14 18.14 +29 34 08.3 18.2   704 – Lincoln Laboratory ETS, New Mexico MPS 23784
2001 01 06.15219 04 13 21.90 +29 37 06.9 17.3   704 – Lincoln Laboratory ETS, New Mexico MPS 25139
2001 01 06.16894 04 13 21.43 +29 37 08.7 16.9   704 – Lincoln Laboratory ETS, New Mexico MPS 25139
2001 01 06.18429 04 13 20.95 +29 37 10.3 17.0   704 – Lincoln Laboratory ETS, New Mexico MPS 25139
2001 01 06.19932 04 13 20.48 +29 37 11.5 17.5   704 – Lincoln Laboratory ETS, New Mexico MPS 25139
2001 01 06.21454 04 13 20.02 +29 37 13.2 17.5   704 – Lincoln Laboratory ETS, New Mexico MPS 25139
2001 02 06.13872 04 13 57.95 +30 27 57.8 18.1   682 – Kanab MPS 26658
2001 02 06.16295 04 13 58.64 +30 28 01.0 18.9   682 – Kanab MPS 26658
